NEOSSAT

Last updated on Mon Oct 20 2025 00:03:35 GMT+0000 (Coordinated Universal Time)

1 39089U 13009D 25292.22373457 .00000450 00000+0 17072-3 0 9993 2 39089 98.4096 113.0991 0009990 242.2893 117.7280 14.35686619662164
UTC large
Height (km)
Speed (km/s)
/
Latitude / Longitude
Inclination (degrees)
Orbital Period (minutes)
Azimuth
Elevation
Range (km)
Doppler Factor

Next 0 passes for location: London (51.5072 / 0.1276)

Sorry there are no passes over London.